Regional Weather Roundup
Issued by NWS Cleveland, OH

Home | Current Version | Previous Version | Graphics & Text | Print | Product List | Glossary On
Versions: 1 2 3 4 5 6 7 8 9 10 11 12 13 14 15 16 17 18 19 20 21 22 23 24 25 26 27 28 29 30 31 32 33 34 35 36 37 38 39 40 41 42 43 44 45 46 47 48 49 50
000
ASUS41 KCLE 032300
RWRCLE
OHIO REGIONAL WEATHER ROUNDUP
NATIONAL WEATHER SERVICE WILMINGTON, OH
700 PM EDT FRI JUL 03 2015

NOTE: "FAIR" INDICATES FEW OR NO CLOUDS BELOW 12,000 FEET WITH NO
SIGNIFICANT WEATHER AND/OR OBSTRUCTIONS TO VISIBILITY.

OHZ001>008-015>018-024>027-034-035-043-044-040000-
   NORTHWEST OHIO

CITY           SKY/WX    TMP DP  RH WIND       PRES   REMARKS
DEFIANCE       MOSUNNY   75  57  53 NE6       29.90F
FINDLAY        MOSUNNY   72  57  59 N10       29.90S
TOLEDO EXPRESS MOSUNNY   72  51  47 NE8       29.91F
TOLEDO EXEC    MOSUNNY   70  51  51 NE6       29.93S
LIMA           PTSUNNY   72  59  63 N9        29.90S
$$

OHZ009>014-019>023-028>033-038-089-040000-
   NORTHEAST OHIO

CITY           SKY/WX    TMP DP  RH WIND       PRES   REMARKS
CLE-HOPKINS    PTSUNNY   71  56  58 NE13      29.93F
CLE-LAKEFRONT  PTSUNNY   70  57  63 NE16      29.90S
CUY CO. ARPT   PTSUNNY   73  57  56 N12       29.92S
LORAIN-ELYRIA  MOSUNNY   69  55  60 NE7       29.91F
ASHTABULA      PTSUNNY   70  53  54 NE7       29.92F
AKRON-CANTON   CLOUDY    74  59  59 NE5       29.90F
WOOSTER        NOT AVBL
MANSFIELD      PTSUNNY   72  60  66 N10       29.91R
YOUNGSTOWN     CLOUDY    74  58  57 NE7       29.90F
$$

OHZ042-051>053-060>062-070>072-077>081-040000-
  SOUTHWEST OHIO

CITY           SKY/WX    TMP DP  RH WIND       PRES   REMARKS
CINC-COVINGTON CLOUDY    73  64  73 NE10      29.86F
CINC-LUNKEN    PTSUNNY   73  65  75 NE8       29.86F
HAMILTON       LGT RAIN  69  66  90 N7        29.88F
DAYTON         NOT AVBL
WRIGHT-PAT AFB PTSUNNY   72  64  74 NE8       29.88F
DAYTON GENERAL CLOUDY    70  61  73 VRB6      29.88S
WILMINGTON     CLOUDY    69  62  78 NE10      29.88F
$$

OHZ036-037-039>041-045>050-054>059-063>069-073>076-082>088-040000-
  CENTRAL AND SOUTHEAST OHIO

CITY           SKY/WX    TMP DP  RH WIND       PRES   REMARKS
COLUMBUS       LGT RAIN  72  63  73 NE3       29.87S
OSU AIRPORT    LGT RAIN  72  62  71 NE5       29.88F
BOLTON FIELD   CLOUDY    73  64  73 E3        29.89S
RICKENBACK AFB NOT AVBL
NEWARK         LGT RAIN  70  65  84 CALM      29.87S
MARION         PTSUNNY   74  60  61 N13       29.89S
LANCASTER      LGT RAIN  70  65  84 VRB7      29.89S
ZANESVILLE     LGT RAIN  71  63  75 NE6       29.87S
NEW PHILLY     CLOUDY    74  61  63 E6        29.88F
$$



USA.gov is the U.S. government's official web portal to all federal, state and local government web resources and services.